This is the latest recevied weather packets stored in our database for station/object 4S6DRJ-13. If no packets are shown the sender has not sent any weather packets the latest 10 day(s).
| Time | Temp. | Humidity | Pressure | Rain* | Wind** | Luminosity | Snow |
|---|---|---|---|---|---|---|---|
| 1788292548 | 27.78° C | 83% | 1009.8 hPa | 0 mm | 0 m/s | 0 W/m² | - |
| 1788292487 | 27.78° C | 83% | 1009.7 hPa | 0 mm | 0.45 m/s, 226° | 0 W/m² | - |
| 1788292426 | 27.78° C | 83% | 1009.8 hPa | 0 mm | 0.89 m/s, 233° | 0 W/m² | - |
| 1788292365 | 27.78° C | 83% | 1009.6 hPa | 0 mm | 0.89 m/s, 233° | 0 W/m² | - |
| 1788292305 | 27.78° C | 83% | 1009.6 hPa | 0 mm | 0.45 m/s, 269° | 0 W/m² | - |
| 1788292243 | 27.78° C | 83% | 1009.8 hPa | 0 mm | 1.34 m/s, 210° | 0 W/m² | - |
| 1788292182 | 27.78° C | 83% | 1009.9 hPa | 0 mm | 1.34 m/s, 249° | 0 W/m² | - |
| 1788292121 | 27.78° C | 83% | 1009.7 hPa | 0 mm | 0.89 m/s, 93° | 0 W/m² | - |
| 1788292060 | 27.78° C | 83% | 1009.9 hPa | 0 mm | 1.79 m/s, 274° | 0 W/m² | - |
| 1788291938 | 27.78° C | 83% | 1009.9 hPa | 0 mm | 0.45 m/s, 227° | 0 W/m² | - |
| 1788291877 | 27.78° C | 83% | 1010 hPa | 0 mm | 0 m/s | 0 W/m² | - |
| 1788291817 | 27.78° C | 83% | 1010 hPa | 0 mm | 0.89 m/s, 194° | 0 W/m² | - |
| 1788291755 | 27.78° C | 83% | 1009.8 hPa | 0 mm | 0.45 m/s, 238° | 0 W/m² | - |
| 1788291694 | 27.78° C | 83% | 1009.9 hPa | 0 mm | 0.45 m/s, 222° | 0 W/m² | - |
| 1788291633 | 27.78° C | 83% | 1009.8 hPa | 0 mm | 0.89 m/s, 237° | 0 W/m² | - |
| 1788291572 | 27.78° C | 83% | 1009.9 hPa | 0 mm | 0.89 m/s, 289° | 0 W/m² | - |
| 1788291511 | 27.78° C | 83% | 1009.9 hPa | 0 mm | 0.45 m/s, 274° | 0 W/m² | - |
| 1788291450 | 27.78° C | 83% | 1010 hPa | 0 mm | 0.89 m/s, 287° | 0 W/m² | - |
| 1788291389 | 27.78° C | 83% | 1009.9 hPa | 0 mm | 0.45 m/s, 249° | 0 W/m² | - |
| 1788291328 | 27.78° C | 83% | 1010 hPa | 0 mm | 0 m/s | 0 W/m² | - |
| 1788291270 | 27.78° C | 83% | 1009.8 hPa | 0 mm | 0.89 m/s, 156° | 0 W/m² | - |
| 1788291205 | 27.78° C | 83% | 1009.9 hPa | 0 mm | 0.45 m/s, 249° | 0 W/m² | - |
| 1788291144 | 27.78° C | 83% | 1009.9 hPa | 0 mm | 0.89 m/s, 207° | 0 W/m² | - |
| 1788291083 | 27.78° C | 83% | 1010 hPa | 0 mm | 0.89 m/s, 229° | 0 W/m² | - |
| 1788291022 | 27.78° C | 83% | 1009.9 hPa | 0 mm | 0 m/s | 0 W/m² | - |
* Rain latest hour (hover to see other rain measurements)
** Current wind speed in m/s (hover to see current wind gust speed)